sat.trackr.live / text

‹ back to catalog

STARLINK-11597 [DTC]

NORAD 63115 · 2025-039M

PAYLOAD ACTIVE UNKNOWN

§ Identity

Operator
Country
US
Launch date
2025-02-27
Launch site
AFETR
Launch vehicle
Mass (kg)
RCS (m²)

Purposes: comms

External: N2YO · Heavens-Above · Gunter

§ Orbital elements

Epoch: 2026-05-25T00:28:16.932288Z

Period
91.66 min
Inclination
43.0001°
Eccentricity
0.0001982
Mean motion
15.71048422 rev/d
Perigee alt
354.6 km
Apogee alt
357.2 km
Semi-major
6,734.0 km
B*
1.2679e-3
RAAN
136.4393°
Arg perigee
291.5548°
Mean anomaly
68.5109°
Rev number
7,162

§ Raw data

STARLINK-11597 [DTC]1 63115U 25039M   26145.01964042  .00167017  00000+0  12679-2 0  99972 63115  43.0001 136.4393 0001982 291.5548  68.5109 15.71048422 71628

JSON: /api/v1/satellites/63115 · /tle

For live sub-satellite position, see the globe view (requires WebGL).

§ Visibility from observer

Set your observer location to see the next 7 days of passes ≥ 10°. The values pass through the URL so the page stays shareable.

No JS? Fill the form by hand. The geolocation button needs JavaScript.